AirNav   Air Wisconsin pilot careers
 
 289 users online  

28WI Rutherford Airport
Arkansaw, Wisconsin, USA

GOING TO ARKANSAW?


FAA INFORMATION EFFECTIVE 12 OCTOBER 2017

Location

FAA Identifier: 28WI
Lat/Long: 44-36-14.8780N / 092-02-47.6200W
44-36.247967N / 092-02.793667W
44.6041328 / -92.0465611
(estimated)
Elevation: 790 ft. / 241 m (estimated)
Variation: 02E (1985)
From city: 2 miles SW of ARKANSAW, WI
Time zone: UTC -5 (UTC -6 during Standard Time)
Zip code: 54721

Airport Operations

Airport use: Private use. Permission required prior to landing
Activation date: 03/1979
Control tower: no
ARTCC: MINNEAPOLIS CENTER
FSS: GREEN BAY FLIGHT SERVICE STATION
Attendance: CONTINUOUS
Wind indicator: yes
Segmented circle: no

Airport Communications

WX AWOS-3 at RGK (19 nm W): 119.25 (715-594-3763)
WX AWOS-3 at LUM (19 nm NE): 118.025 (715-235-5342)
  • FREQ 122.9 AVBL FOR COMMUNICATIONS WITH THE ARPT.

Nearby radio navigation aids

VOR radial/distance  VOR name  Freq  Var
EAUr230/29.9EAU CLAIRE VORTAC112.9004E
ONAr334/34.9WINONA VOR/DME111.4001E

Airport Services

Runway Information

Runway 9/27

Dimensions: 3000 x 60 ft. / 914 x 18 m
Surface: turf
RUNWAY 9  RUNWAY 27
Traffic pattern: leftleft
Obstructions: pline, markedhill, 1200 ft. from runway

Airport Ownership and Management from official FAA records

Ownership: Privately-owned
Owner: NORTHERN TRAILS AVIATION
2760 23 AND 1/2 STREET
RICE LAKE, WI 54868
Phone 715-296-4018
Manager: THOM RUTHERFORD
2760 23 AND 1/2 STREET
RICE LAKE, WI 54868
Phone 715-296-4018

Airport Operational Statistics

Aircraft based on the field: 3
Single engine airplanes: 3
    

Instrument Procedures

There are no published instrument procedures at 28WI.

Some nearby airports with instrument procedures:

KRGK - Red Wing Regional Airport (19 nm W)
KLUM - Menomonie Municipal Airport-Score Field (19 nm NE)
3T3 - Boyceville Municipal Airport (26 nm N)
KEAU - Chippewa Valley Regional Airport (29 nm NE)
KONA - Winona Municipal Airport-Max Conrad Field (35 nm SE)
 
Loc | Ops | Rwys | IFR | FBO | Links
Com | Nav | Svcs | Stats | Notes


 
Area around 28WI (Rutherford Airport)
 
Road maps at: MapQuest Bing Google
 
Aerial photo
No photo
 
Sectional chart

 
Airport distance calculator
Flying to Rutherford Airport? Find the distance to fly.

From to 28WI

Sunrise and sunset
Times for 21-Oct-2017
 Local
(UTC-5)
 Zulu
(UTC)
Morning civil twilight07:0312:03
Sunrise07:3212:32
Sunset18:1323:13
Evening civil twilight18:4323:43

Current date and time
Zulu (UTC)  21-Oct-2017 07:38:54
Local (UTC-5)  21-Oct-2017 02:38:54
 
METAR
KRGK 
18nm W 
210715Z AUTO 17009G18KT 132V202 10SM CLR 18/08 A2977 RMK AO2
KLUM 
19nm NE 
210715Z AUTO 17016G19KT 10SM CLR 18/09 A2980 RMK AO2 T01810085
KEAU 
29nm NE 
210656Z AUTO 17011KT 10SM CLR 18/07 A2982 RMK AO2 SLP093 T01830072
KONA 
36nm SE 
210712Z AUTO 17004KT 10SM CLR 19/09 A2983 RMK AO2
TAF
KEAU 
29nm NE 
210520Z 2106/2206 18012G18KT P6SM BKN150 WS020/19045KT FM211100 17010KT P6SM VCSH BKN080 FM211400 18011KT 6SM -SHRA OVC045 FM211600 18012G20KT P6SM OVC040 FM211800 17010KT P6SM OVC025 FM220300 19008KT 4SM SHRA OVC020
NOTAMs
Click for the latest NOTAMs
NOTAMs are issued by the DoD/FAA and will open in a separate window not controlled by AirNav.

 

 
 

Would you like to see your business listed on this page?

 If your business provides an interesting product or service to pilots, flight crews, aircraft, or users of the Rutherford Airport, you should consider listing it here.  To start the listing process, click on the button below
 
Add a business
 

Other Pages about Rutherford Airport

Update a link
 
Copyright © AirNav, LLC. All rights reserved. Privacy Policy  Contact